TimeCST,TemperatureF,Dew PointF,Humidity,Sea Level PressureIn,VisibilityMPH,Wind Direction,Wind SpeedMPH,Gust SpeedMPH,PrecipitationIn,Events,Conditions,WindDirDegrees,DateUTC
12:56 AM,31.1,30.0,96,30.19,10.0,Calm,Calm,-,N/A,,Clear,0,2013-01-21 06:56:00
1:56 AM,29.1,29.1,100,30.19,10.0,Calm,Calm,-,N/A,,Clear,0,2013-01-21 07:56:00
2:56 AM,29.1,29.1,100,30.19,10.0,North,4.6,-,N/A,,Clear,350,2013-01-21 08:56:00
3:56 AM,29.1,29.1,100,30.18,10.0,Calm,Calm,-,N/A,,Clear,0,2013-01-21 09:56:00
4:56 AM,29.1,29.1,100,30.19,10.0,Calm,Calm,-,N/A,,Clear,0,2013-01-21 10:56:00
5:56 AM,30.0,29.1,96,30.19,10.0,Calm,Calm,-,N/A,,Clear,0,2013-01-21 11:56:00
6:56 AM,30.0,27.1,89,30.22,10.0,NNE,3.5,-,N/A,,Clear,20,2013-01-21 12:56:00
7:56 AM,32.0,26.1,79,30.26,10.0,North,8.1,-,N/A,,Clear,360,2013-01-21 13:56:00
8:56 AM,36.0,23.0,59,30.29,10.0,North,8.1,-,N/A,,Clear,10,2013-01-21 14:56:00
9:56 AM,37.9,22.1,53,30.31,10.0,North,10.4,-,N/A,,Clear,10,2013-01-21 15:56:00
10:56 AM,41.0,19.0,41,30.31,10.0,North,9.2,-,N/A,,Clear,10,2013-01-21 16:56:00
11:56 AM,43.9,19.0,37,30.28,10.0,North,11.5,18.4,N/A,,Clear,360,2013-01-21 17:56:00
12:56 PM,43.9,17.1,34,30.27,10.0,NNW,10.4,-,N/A,,Clear,340,2013-01-21 18:56:00
1:56 PM,45.0,17.1,33,30.25,10.0,NW,9.2,-,N/A,,Clear,320,2013-01-21 19:56:00
2:56 PM,45.9,16.2,30,30.25,10.0,North,9.2,-,N/A,,Clear,350,2013-01-21 20:56:00
3:56 PM,45.0,16.2,32,30.27,10.0,North,9.2,-,N/A,,Clear,360,2013-01-21 21:56:00
4:56 PM,41.0,16.2,37,30.28,10.0,North,9.2,-,N/A,,Clear,350,2013-01-21 22:56:00
5:56 PM,36.9,18.1,47,30.29,10.0,NNW,6.9,-,N/A,,Clear,330,2013-01-21 23:56:00
6:56 PM,34.0,18.1,52,30.30,10.0,NNW,6.9,-,N/A,,Clear,340,2013-01-22 00:56:00
7:56 PM,32.0,17.1,54,30.30,10.0,North,4.6,-,N/A,,Clear,360,2013-01-22 01:56:00
8:56 PM,30.0,18.1,61,30.31,10.0,North,5.8,-,N/A,,Clear,350,2013-01-22 02:56:00
9:56 PM,29.1,17.1,61,30.31,10.0,North,5.8,-,N/A,,Clear,360,2013-01-22 03:56:00
10:56 PM,29.1,16.2,58,30.31,10.0,North,9.2,-,N/A,,Clear,360,2013-01-22 04:56:00
11:56 PM,27.1,15.1,60,30.30,10.0,North,6.9,-,N/A,,Clear,360,2013-01-22 05:56:00